TimeCDT,TemperatureF,Dew PointF,Humidity,Sea Level PressureIn,VisibilityMPH,Wind Direction,Wind SpeedMPH,Gust SpeedMPH,PrecipitationIn,Events,Conditions,WindDirDegrees,DateUTC
12:53 AM,27.0,17.1,66,29.95,10.0,WNW,31.1,39.1,N/A,,Mostly Cloudy,290,2013-03-19 05:53:00
1:53 AM,26.1,17.1,69,29.94,10.0,West,20.7,29.9,N/A,,Clear,280,2013-03-19 06:53:00
2:53 AM,25.0,18.0,75,29.94,10.0,West,16.1,-,N/A,,Clear,260,2013-03-19 07:53:00
3:53 AM,25.0,18.0,75,29.96,10.0,West,17.3,25.3,N/A,,Clear,270,2013-03-19 08:53:00
4:53 AM,25.0,17.1,72,29.97,10.0,West,17.3,21.9,N/A,,Clear,270,2013-03-19 09:53:00
5:53 AM,24.1,16.0,71,29.99,10.0,West,15.0,-,N/A,,Clear,280,2013-03-19 10:53:00
6:53 AM,21.9,15.1,75,30.01,10.0,West,13.8,-,N/A,,Clear,280,2013-03-19 11:53:00
7:53 AM,23.0,15.1,72,30.04,10.0,West,16.1,27.6,N/A,,Clear,270,2013-03-19 12:53:00
8:53 AM,25.0,12.9,60,30.06,10.0,West,26.5,33.4,N/A,,Clear,280,2013-03-19 13:53:00
9:53 AM,28.0,14.0,56,30.07,10.0,West,25.3,-,N/A,,Clear,280,2013-03-19 14:53:00
10:53 AM,30.0,16.0,56,30.10,10.0,West,24.2,33.4,N/A,,Clear,270,2013-03-19 15:53:00
11:53 AM,33.1,17.1,52,30.12,10.0,West,24.2,32.2,N/A,,Clear,270,2013-03-19 16:53:00
12:53 PM,36.0,17.1,46,30.14,10.0,West,23.0,32.2,N/A,,Clear,270,2013-03-19 17:53:00
1:53 PM,37.9,17.1,43,30.14,10.0,West,21.9,31.1,N/A,,Clear,280,2013-03-19 18:53:00
2:53 PM,41.0,18.0,40,30.13,10.0,West,24.2,-,N/A,,Clear,260,2013-03-19 19:53:00
3:53 PM,42.1,16.0,35,30.14,10.0,WNW,21.9,28.8,N/A,,Clear,290,2013-03-19 20:53:00
4:53 PM,42.1,14.0,32,30.14,10.0,WNW,21.9,27.6,N/A,,Clear,290,2013-03-19 21:53:00
5:53 PM,41.0,17.1,38,30.15,10.0,West,15.0,23.0,N/A,,Clear,280,2013-03-19 22:53:00
6:53 PM,37.0,18.0,46,30.16,10.0,West,11.5,-,N/A,,Clear,270,2013-03-19 23:53:00
7:53 PM,32.0,19.9,61,30.17,10.0,West,9.2,-,N/A,,Clear,260,2013-03-20 00:53:00
8:53 PM,30.0,19.9,66,30.17,10.0,West,8.1,-,N/A,,Clear,260,2013-03-20 01:53:00
9:53 PM,27.0,19.9,75,30.18,10.0,WSW,6.9,-,N/A,,Clear,250,2013-03-20 02:53:00
10:53 PM,27.0,19.9,75,30.16,10.0,West,6.9,-,N/A,,Clear,270,2013-03-20 03:53:00
11:53 PM,25.0,19.0,78,30.15,10.0,SW,5.8,-,N/A,,Clear,230,2013-03-20 04:53:00